Time,TemperatureF,DewpointF,PressureIn,WindDirection,WindDirectionDegrees,WindSpeedMPH,WindSpeedGustMPH,Humidity,HourlyPrecipIn,Conditions,Clouds,dailyrainin,SoftwareType,DateUTC
2013-09-14 00:02:00,45.1,39.3,29.12,ESE,112,0.0,0.0,80,0.00,CLR,,0.00,WeatherDisplay:10.37,2013-09-14 05:02:00,
2013-09-14 00:07:00,45.0,39.5,29.12,ESE,112,0.0,0.0,81,0.00,CLR,,0.00,WeatherDisplay:10.37,2013-09-14 05:07:00,
2013-09-14 00:12:00,45.0,39.8,29.12,ESE,112,0.0,0.0,82,0.00,CLR,,0.00,WeatherDisplay:10.37,2013-09-14 05:12:00,
2013-09-14 00:17:00,44.8,39.6,29.12,ESE,112,0.0,0.0,82,0.00,CLR,,0.00,WeatherDisplay:10.37,2013-09-14 05:17:00,
2013-09-14 00:22:00,44.6,39.4,29.12,ESE,112,0.0,0.0,82,0.00,CLR,,0.00,WeatherDisplay:10.37,2013-09-14 05:22:00,
2013-09-14 00:27:00,44.4,39.6,29.15,ESE,112,2.3,2.3,83,0.00,CLR,,0.00,WeatherDisplay:10.37,2013-09-14 05:27:00,
2013-09-14 00:32:00,44.2,39.4,29.15,ESE,112,1.1,0.0,83,0.00,CLR,,0.00,WeatherDisplay:10.37,2013-09-14 05:32:00,
2013-09-14 00:37:00,44.1,39.2,29.15,ESE,112,0.0,0.0,83,0.00,CLR,,0.00,WeatherDisplay:10.37,2013-09-14 05:37:00,
2013-09-14 00:42:00,43.9,39.1,29.12,ESE,112,0.0,0.0,83,0.00,CLR,,0.00,WeatherDisplay:10.37,2013-09-14 05:42:00,
2013-09-14 00:47:00,43.7,38.9,29.12,ESE,112,0.0,0.0,83,0.00,CLR,,0.00,WeatherDisplay:10.37,2013-09-14 05:47:00,
2013-09-14 00:52:00,43.5,38.7,29.12,ESE,112,0.0,0.0,83,0.00,CLR,,0.00,WeatherDisplay:10.37,2013-09-14 05:52:00,
2013-09-14 00:57:00,43.5,38.7,29.12,ESE,112,0.0,0.0,83,0.00,CLR,,0.00,WeatherDisplay:10.37,2013-09-14 05:57:00,
2013-09-14 01:02:00,43.3,38.8,29.12,ESE,112,0.0,0.0,84,0.00,CLR,,0.00,WeatherDisplay:10.37,2013-09-14 06:02:00,
2013-09-14 01:07:00,43.2,38.3,29.12,ESE,112,0.0,0.0,83,0.00,CLR,,0.00,WeatherDisplay:10.37,2013-09-14 06:07:00,
2013-09-14 01:12:00,43.0,38.2,29.12,ESE,112,0.0,0.0,83,0.00,CLR,,0.00,WeatherDisplay:10.37,2013-09-14 06:12:00,
2013-09-14 01:17:00,43.0,38.2,29.12,ESE,112,0.0,0.0,83,0.00,CLR,,0.00,WeatherDisplay:10.37,2013-09-14 06:17:00,
2013-09-14 01:22:00,42.8,38.3,29.12,ESE,112,0.0,0.0,84,0.00,CLR,,0.00,WeatherDisplay:10.37,2013-09-14 06:22:00,
2013-09-14 01:27:00,42.6,38.1,29.12,ESE,112,0.0,0.0,84,0.00,CLR,,0.00,WeatherDisplay:10.37,2013-09-14 06:27:00,
2013-09-14 01:32:00,42.6,38.4,29.12,ESE,112,0.0,0.0,85,0.00,CLR,,0.00,WeatherDisplay:10.37,2013-09-14 06:32:00,
2013-09-14 01:37:00,42.4,38.2,29.12,ESE,112,0.0,0.0,85,0.00,CLR,,0.00,WeatherDisplay:10.37,2013-09-14 06:37:00,
2013-09-14 01:42:00,42.4,38.5,29.12,ESE,112,0.0,0.0,86,0.00,CLR,,0.00,WeatherDisplay:10.37,2013-09-14 06:42:00,
2013-09-14 01:47:00,42.4,38.5,29.12,ESE,112,0.0,0.0,86,0.00,CLR,,0.00,WeatherDisplay:10.37,2013-09-14 06:47:00,
2013-09-14 01:52:00,42.4,38.5,29.12,ESE,112,0.0,0.0,86,0.00,CLR,,0.00,WeatherDisplay:10.37,2013-09-14 06:52:00,
2013-09-14 01:57:00,42.4,38.5,29.12,ESE,112,0.0,0.0,86,0.00,CLR,,0.00,WeatherDisplay:10.37,2013-09-14 06:57:00,
2013-09-14 02:02:00,42.3,38.4,29.12,ESE,112,0.0,0.0,86,0.00,CLR,,0.00,WeatherDisplay:10.37,2013-09-14 07:02:00,
2013-09-14 02:07:00,42.3,38.4,29.12,ESE,112,0.0,0.0,86,0.00,CLR,,0.00,WeatherDisplay:10.37,2013-09-14 07:07:00,
2013-09-14 02:12:00,42.3,38.4,29.09,ESE,112,0.0,0.0,86,0.00,CLR,,0.00,WeatherDisplay:10.37,2013-09-14 07:12:00,
2013-09-14 02:17:00,42.1,38.2,29.09,ESE,112,0.0,0.0,86,0.00,CLR,,0.00,WeatherDisplay:10.37,2013-09-14 07:17:00,
2013-09-14 02:22:00,42.1,38.2,29.09,ESE,112,0.0,0.0,86,0.00,CLR,,0.00,WeatherDisplay:10.37,2013-09-14 07:22:00,
2013-09-14 02:27:00,41.9,38.0,29.12,ESE,112,0.0,0.0,86,0.00,CLR,,0.00,WeatherDisplay:10.37,2013-09-14 07:27:00,
2013-09-14 02:32:00,41.7,37.8,29.12,ESE,112,0.0,0.0,86,0.00,CLR,,0.00,WeatherDisplay:10.37,2013-09-14 07:32:00,
2013-09-14 02:37:00,41.7,37.8,29.12,ESE,112,0.0,0.0,86,0.00,CLR,,0.00,WeatherDisplay:10.37,2013-09-14 07:37:00,
2013-09-14 02:42:00,41.5,37.7,29.12,ESE,112,0.0,0.0,86,0.00,CLR,,0.00,WeatherDisplay:10.37,2013-09-14 07:42:00,
2013-09-14 02:47:00,41.4,37.5,29.12,ESE,112,0.0,0.0,86,0.00,CLR,,0.00,WeatherDisplay:10.37,2013-09-14 07:47:00,
2013-09-14 02:52:00,41.2,37.0,29.12,ESE,112,0.0,0.0,85,0.00,CLR,,0.00,WeatherDisplay:10.37,2013-09-14 07:52:00,
2013-09-14 02:58:00,41.0,36.8,29.12,ESE,112,1.1,1.1,85,0.00,CLR,,0.00,WeatherDisplay:10.37,2013-09-14 07:58:00,
2013-09-14 03:03:00,41.0,37.1,29.12,ESE,112,1.1,1.1,86,0.00,CLR,,0.00,WeatherDisplay:10.37,2013-09-14 08:03:00,
2013-09-14 03:08:00,40.8,37.0,29.12,ESE,112,0.0,0.0,86,0.00,CLR,,0.00,WeatherDisplay:10.37,2013-09-14 08:08:00,
2013-09-14 03:13:00,40.6,36.8,29.12,ESE,112,0.0,0.0,86,0.00,CLR,,0.00,WeatherDisplay:10.37,2013-09-14 08:13:00,
2013-09-14 03:18:00,40.6,36.8,29.12,ESE,112,0.0,0.0,86,0.00,CLR,,0.00,WeatherDisplay:10.37,2013-09-14 08:18:00,
2013-09-14 03:23:00,40.5,36.6,29.12,ESE,112,0.0,0.0,86,0.00,CLR,,0.00,WeatherDisplay:10.37,2013-09-14 08:23:00,
2013-09-14 03:28:00,40.3,36.4,29.12,ESE,112,0.0,0.0,86,0.00,CLR,,0.00,WeatherDisplay:10.37,2013-09-14 08:28:00,
2013-09-14 03:33:00,40.3,36.7,29.12,ESE,112,1.4,0.0,87,0.00,CLR,,0.00,WeatherDisplay:10.37,2013-09-14 08:33:00,
2013-09-14 03:38:00,40.3,36.7,29.12,ESE,112,1.1,0.0,87,0.00,CLR,,0.00,WeatherDisplay:10.37,2013-09-14 08:38:00,
2013-09-14 03:43:00,40.1,36.5,29.12,ESE,112,0.0,0.0,87,0.00,CLR,,0.00,WeatherDisplay:10.37,2013-09-14 08:43:00,
2013-09-14 03:48:00,39.9,36.4,29.12,ESE,112,0.0,0.0,87,0.00,CLR,,0.00,WeatherDisplay:10.37,2013-09-14 08:48:00,
2013-09-14 03:53:00,39.9,36.4,29.12,ESE,112,0.0,0.0,87,0.00,CLR,,0.00,WeatherDisplay:10.37,2013-09-14 08:53:00,
2013-09-14 03:58:00,39.7,36.2,29.12,ESE,112,0.0,0.0,87,0.00,CLR,,0.00,WeatherDisplay:10.37,2013-09-14 08:58:00,
2013-09-14 04:03:00,39.7,36.2,29.12,ESE,112,0.0,0.0,87,0.00,CLR,,0.00,WeatherDisplay:10.37,2013-09-14 09:03:00,
2013-09-14 04:08:00,39.7,36.2,29.12,ESE,112,0.0,0.0,87,0.00,CLR,,0.00,WeatherDisplay:10.37,2013-09-14 09:08:00,
2013-09-14 04:13:00,39.6,36.0,29.12,ESE,112,0.0,0.0,87,0.00,CLR,,0.00,WeatherDisplay:10.37,2013-09-14 09:13:00,
2013-09-14 04:18:00,39.4,35.8,29.12,ESE,112,0.0,0.0,87,0.00,CLR,,0.00,WeatherDisplay:10.37,2013-09-14 09:18:00,
2013-09-14 04:23:00,39.4,35.8,29.12,ESE,112,0.0,0.0,87,0.00,CLR,,0.00,WeatherDisplay:10.37,2013-09-14 09:23:00,
2013-09-14 04:28:00,39.4,36.1,29.12,ESE,112,0.0,0.0,88,0.00,CLR,,0.00,WeatherDisplay:10.37,2013-09-14 09:28:00,
2013-09-14 04:33:00,39.2,35.9,29.12,ESE,112,0.0,0.0,88,0.00,CLR,,0.00,WeatherDisplay:10.37,2013-09-14 09:33:00,
2013-09-14 04:38:00,39.2,35.9,29.12,ESE,112,0.0,0.0,88,0.00,CLR,,0.00,WeatherDisplay:10.37,2013-09-14 09:38:00,
2013-09-14 04:43:00,39.2,35.9,29.12,ESE,112,0.0,0.0,88,0.00,CLR,,0.00,WeatherDisplay:10.37,2013-09-14 09:43:00,
2013-09-14 04:48:00,39.0,35.8,29.12,ESE,112,0.0,0.0,88,0.00,CLR,,0.00,WeatherDisplay:10.37,2013-09-14 09:48:00,
2013-09-14 04:53:00,39.0,35.8,29.12,ESE,112,1.4,1.4,88,0.00,CLR,,0.00,WeatherDisplay:10.37,2013-09-14 09:53:00,
2013-09-14 04:58:00,38.8,35.6,29.12,ESE,112,0.0,0.0,88,0.00,CLR,,0.00,WeatherDisplay:10.37,2013-09-14 09:58:00,
2013-09-14 05:03:00,38.8,35.6,29.12,ESE,112,0.0,0.0,88,0.00,CLR,,0.00,WeatherDisplay:10.37,2013-09-14 10:03:00,
2013-09-14 05:08:00,38.7,35.4,29.12,ESE,112,0.0,0.0,88,0.00,CLR,,0.00,WeatherDisplay:10.37,2013-09-14 10:08:00,
2013-09-14 05:13:00,38.7,35.4,29.12,ESE,112,0.0,0.0,88,0.00,CLR,,0.00,WeatherDisplay:10.37,2013-09-14 10:13:00,
2013-09-14 05:18:00,38.7,35.4,29.12,ESE,112,0.0,0.0,88,0.00,CLR,,0.00,WeatherDisplay:10.37,2013-09-14 10:18:00,
2013-09-14 05:23:00,38.7,35.7,29.12,ESE,112,0.0,0.0,89,0.00,CLR,,0.00,WeatherDisplay:10.37,2013-09-14 10:23:00,
2013-09-14 05:28:00,38.8,35.9,29.12,ESE,112,0.0,0.0,89,0.00,CLR,,0.00,WeatherDisplay:10.37,2013-09-14 10:28:00,
2013-09-14 05:33:00,38.8,36.2,29.12,ESE,112,0.0,0.0,90,0.00,CLR,,0.00,WeatherDisplay:10.37,2013-09-14 10:33:00,
2013-09-14 05:38:00,38.8,36.2,29.12,ESE,112,0.0,0.0,90,0.00,CLR,,0.00,WeatherDisplay:10.37,2013-09-14 10:38:00,
2013-09-14 05:43:00,38.8,36.2,29.12,ESE,112,1.6,0.0,90,0.00,CLR,,0.00,WeatherDisplay:10.37,2013-09-14 10:43:00,
2013-09-14 05:48:00,39.0,36.3,29.12,ESE,112,2.3,0.0,90,0.00,CLR,,0.00,WeatherDisplay:10.37,2013-09-14 10:48:00,
2013-09-14 05:53:00,39.0,36.3,29.12,ESE,112,0.0,0.0,90,0.00,CLR,,0.00,WeatherDisplay:10.37,2013-09-14 10:53:00,
2013-09-14 05:58:00,39.0,36.3,29.09,ESE,112,0.0,0.0,90,0.00,CLR,,0.00,WeatherDisplay:10.37,2013-09-14 10:58:00,
2013-09-14 06:03:00,39.0,36.6,29.09,ESE,112,0.0,0.0,91,0.00,CLR,,0.00,WeatherDisplay:10.37,2013-09-14 11:03:00,
2013-09-14 06:08:00,39.0,36.6,29.09,ESE,112,0.0,0.0,91,0.00,CLR,,0.00,WeatherDisplay:10.37,2013-09-14 11:08:00,
2013-09-14 06:13:00,39.0,36.3,29.09,ESE,112,0.0,0.0,90,0.00,CLR,,0.00,WeatherDisplay:10.37,2013-09-14 11:13:00,
2013-09-14 06:18:00,38.8,36.2,29.09,ESE,112,0.0,0.0,90,0.00,CLR,,0.00,WeatherDisplay:10.37,2013-09-14 11:18:00,
2013-09-14 06:23:00,38.8,36.4,29.09,ESE,112,0.9,0.0,91,0.00,CLR,,0.00,WeatherDisplay:10.37,2013-09-14 11:23:00,
2013-09-14 06:28:00,38.8,36.4,29.09,ESE,112,0.0,0.0,91,0.00,CLR,,0.00,WeatherDisplay:10.37,2013-09-14 11:28:00,
2013-09-14 06:33:00,38.8,36.4,29.09,ESE,112,1.1,0.0,91,0.00,CLR,,0.00,WeatherDisplay:10.37,2013-09-14 11:33:00,
2013-09-14 06:38:00,38.8,36.4,29.09,ESE,112,1.1,1.1,91,0.00,CLR,,0.00,WeatherDisplay:10.37,2013-09-14 11:38:00,
2013-09-14 06:43:00,38.8,36.4,29.09,ESE,112,1.1,1.1,91,0.00,CLR,,0.00,WeatherDisplay:10.37,2013-09-14 11:43:00,
2013-09-14 06:48:00,38.7,36.0,29.09,ESE,112,0.0,0.0,90,0.00,CLR,,0.00,WeatherDisplay:10.37,2013-09-14 11:48:00,
2013-09-14 06:53:00,38.7,36.0,29.09,ESE,112,0.0,0.0,90,0.00,CLR,,0.00,WeatherDisplay:10.37,2013-09-14 11:53:00,
2013-09-14 06:58:00,38.7,36.0,29.09,ESE,112,0.0,0.0,90,0.00,CLR,,0.00,WeatherDisplay:10.37,2013-09-14 11:58:00,
2013-09-14 07:03:00,38.7,36.0,29.09,ESE,112,0.0,0.0,90,0.00,CLR,,0.00,WeatherDisplay:10.37,2013-09-14 12:03:00,
2013-09-14 07:08:00,38.7,36.3,29.09,ESE,112,0.0,0.0,91,0.00,CLR,,0.00,WeatherDisplay:10.37,2013-09-14 12:08:00,
2013-09-14 07:13:00,38.7,36.3,29.09,ESE,112,1.1,0.0,91,0.00,CLR,,0.00,WeatherDisplay:10.37,2013-09-14 12:13:00,
2013-09-14 07:18:00,38.8,36.4,29.09,ESE,112,0.0,0.0,91,0.00,CLR,,0.00,WeatherDisplay:10.37,2013-09-14 12:18:00,
2013-09-14 07:23:00,39.0,36.9,29.09,ESE,112,0.0,0.0,92,0.00,CLR,,0.00,WeatherDisplay:10.37,2013-09-14 12:23:00,
2013-09-14 07:28:00,39.2,37.1,29.12,ESE,112,0.0,0.0,92,0.00,CLR,,0.00,WeatherDisplay:10.37,2013-09-14 12:28:00,
2013-09-14 07:33:00,39.6,37.4,29.12,ESE,112,2.3,2.3,92,0.00,CLR,,0.00,WeatherDisplay:10.37,2013-09-14 12:33:00,
2013-09-14 07:38:00,39.7,37.9,29.12,ESE,112,1.1,1.1,93,0.00,CLR,,0.00,WeatherDisplay:10.37,2013-09-14 12:38:00,
2013-09-14 07:43:00,40.1,38.2,29.12,ESE,112,1.1,1.1,93,0.00,CLR,,0.00,WeatherDisplay:10.37,2013-09-14 12:43:00,
2013-09-14 07:48:00,40.5,38.6,29.12,ESE,112,0.0,0.0,93,0.00,CLR,,0.00,WeatherDisplay:10.37,2013-09-14 12:48:00,
2013-09-14 07:53:00,40.8,39.0,29.12,ESE,112,0.0,0.0,93,0.00,CLR,,0.00,WeatherDisplay:10.37,2013-09-14 12:53:00,
2013-09-14 07:58:00,41.2,39.3,29.12,ESE,112,0.0,0.0,93,0.00,CLR,,0.00,WeatherDisplay:10.37,2013-09-14 12:58:00,
2013-09-14 08:03:00,41.5,39.7,29.12,ESE,112,0.0,0.0,93,0.00,CLR,,0.00,WeatherDisplay:10.37,2013-09-14 13:03:00,
2013-09-14 08:08:00,41.9,40.3,29.12,ESE,112,0.0,0.0,94,0.00,CLR,,0.00,WeatherDisplay:10.37,2013-09-14 13:08:00,
2013-09-14 08:13:00,42.1,40.5,29.12,ESE,112,0.0,0.0,94,0.00,CLR,,0.00,WeatherDisplay:10.37,2013-09-14 13:13:00,
2013-09-14 08:18:00,42.6,41.0,29.12,ESE,112,0.0,0.0,94,0.00,CLR,,0.00,WeatherDisplay:10.37,2013-09-14 13:18:00,
2013-09-14 08:23:00,43.2,41.6,29.12,ESE,112,0.0,0.0,94,0.00,CLR,,0.00,WeatherDisplay:10.37,2013-09-14 13:23:00,
2013-09-14 08:28:00,43.9,42.5,29.09,ESE,112,0.0,0.0,95,0.00,CLR,,0.00,WeatherDisplay:10.37,2013-09-14 13:28:00,
2013-09-14 08:33:00,44.8,43.4,29.09,ESE,112,1.1,1.1,95,0.00,CLR,,0.00,WeatherDisplay:10.37,2013-09-14 13:33:00,
2013-09-14 08:38:00,45.7,44.3,29.09,SSE,158,1.1,1.4,95,0.00,CLR,,0.00,WeatherDisplay:10.37,2013-09-14 13:38:00,
2013-09-14 08:43:00,46.8,45.4,29.09,SSE,158,2.4,0.0,95,0.00,CLR,,0.00,WeatherDisplay:10.37,2013-09-14 13:43:00,
2013-09-14 08:48:00,47.8,46.8,29.09,SSE,158,2.3,0.0,96,0.00,CLR,,0.00,WeatherDisplay:10.37,2013-09-14 13:48:00,
2013-09-14 08:53:00,48.7,47.4,29.09,SE,135,2.3,2.3,95,0.00,CLR,,0.00,WeatherDisplay:10.37,2013-09-14 13:53:00,
2013-09-14 08:58:00,49.5,48.1,29.09,SW,225,1.4,1.4,95,0.00,CLR,,0.00,WeatherDisplay:10.37,2013-09-14 13:58:00,
2013-09-14 09:03:00,50.4,48.7,29.09,SSE,158,1.1,1.1,94,0.00,CLR,,0.00,WeatherDisplay:10.37,2013-09-14 14:03:00,
2013-09-14 09:08:00,51.3,49.0,29.09,SW,225,3.6,3.6,92,0.00,CLR,,0.00,WeatherDisplay:10.37,2013-09-14 14:08:00,
2013-09-14 09:13:00,52.2,49.3,29.09,SSW,202,5.8,5.8,90,0.00,CLR,,0.00,WeatherDisplay:10.37,2013-09-14 14:13:00,
2013-09-14 09:18:00,52.9,49.1,29.09,WSW,248,8.1,8.1,87,0.00,CLR,,0.00,WeatherDisplay:10.37,2013-09-14 14:18:00,
2013-09-14 09:23:00,53.6,48.9,29.09,South,180,2.3,2.3,84,0.00,CLR,,0.00,WeatherDisplay:10.37,2013-09-14 14:23:00,
2013-09-14 09:28:00,54.1,49.4,29.09,SSW,202,5.6,5.6,84,0.00,CLR,,0.00,WeatherDisplay:10.37,2013-09-14 14:28:00,
2013-09-14 09:33:00,54.7,49.3,29.09,SW,225,3.6,3.6,82,0.00,CLR,,0.00,WeatherDisplay:10.37,2013-09-14 14:33:00,
2013-09-14 09:38:00,55.4,49.7,29.09,South,180,3.5,3.5,81,0.00,CLR,,0.00,WeatherDisplay:10.37,2013-09-14 14:38:00,
2013-09-14 09:43:00,55.8,49.7,29.09,SSW,202,6.9,6.9,80,0.00,CLR,,0.00,WeatherDisplay:10.37,2013-09-14 14:43:00,
2013-09-14 09:48:00,56.3,48.8,29.09,SW,225,6.9,6.9,76,0.00,CLR,,0.00,WeatherDisplay:10.37,2013-09-14 14:48:00,
2013-09-14 09:53:00,56.8,49.4,29.09,SSW,202,5.8,5.8,76,0.00,CLR,,0.00,WeatherDisplay:10.37,2013-09-14 14:53:00,
2013-09-14 09:58:00,57.0,49.5,29.09,SSW,202,4.7,4.7,76,0.00,CLR,,0.00,WeatherDisplay:10.37,2013-09-14 14:58:00,
2013-09-14 10:03:00,57.6,49.0,29.09,SW,225,4.0,4.0,73,0.00,CLR,,0.00,WeatherDisplay:10.37,2013-09-14 15:03:00,
2013-09-14 10:09:00,58.3,50.0,29.09,SSW,202,1.6,1.6,74,0.00,CLR,,0.00,WeatherDisplay:10.37,2013-09-14 15:09:00,
2013-09-14 10:14:00,58.8,49.8,29.06,SSW,202,7.4,7.4,72,0.00,CLR,,0.00,WeatherDisplay:10.37,2013-09-14 15:14:00,
2013-09-14 10:19:00,59.5,49.7,29.06,SSW,202,5.8,5.8,70,0.00,CLR,,0.00,WeatherDisplay:10.37,2013-09-14 15:19:00,
2013-09-14 10:24:00,60.1,48.7,29.06,SW,225,4.6,4.6,66,0.00,CLR,,0.00,WeatherDisplay:10.37,2013-09-14 15:24:00,
2013-09-14 10:29:00,61.0,47.9,29.09,SW,225,4.6,4.6,62,0.00,CLR,,0.00,WeatherDisplay:10.37,2013-09-14 15:29:00,
2013-09-14 10:34:00,61.5,47.9,29.09,SSW,202,8.1,8.1,61,0.00,CLR,,0.00,WeatherDisplay:10.37,2013-09-14 15:34:00,
2013-09-14 10:39:00,62.2,47.7,29.09,SSE,158,4.6,4.6,59,0.00,CLR,,0.00,WeatherDisplay:10.37,2013-09-14 15:39:00,
2013-09-14 10:44:00,62.6,46.7,29.09,South,180,7.1,7.1,56,0.00,CLR,,0.00,WeatherDisplay:10.37,2013-09-14 15:44:00,
2013-09-14 10:49:00,63.3,48.7,29.09,SSW,202,6.2,6.2,59,0.00,CLR,,0.00,WeatherDisplay:10.37,2013-09-14 15:49:00,
2013-09-14 10:54:00,64.0,47.1,29.09,SW,225,8.1,8.1,54,0.00,CLR,,0.00,WeatherDisplay:10.37,2013-09-14 15:54:00,
2013-09-14 10:59:00,64.6,47.1,29.09,SSW,202,5.8,5.8,53,0.00,CLR,,0.00,WeatherDisplay:10.37,2013-09-14 15:59:00,
2013-09-14 11:04:00,64.9,47.9,29.09,SW,225,5.4,5.4,54,0.00,CLR,,0.00,WeatherDisplay:10.37,2013-09-14 16:04:00,
2013-09-14 11:09:00,65.5,47.9,29.09,SW,225,6.9,6.9,53,0.00,CLR,,0.00,WeatherDisplay:10.37,2013-09-14 16:09:00,
2013-09-14 11:14:00,66.0,47.9,29.09,SSW,202,5.8,5.8,52,0.00,CLR,,0.00,WeatherDisplay:10.37,2013-09-14 16:14:00,
2013-09-14 11:19:00,66.6,47.9,29.09,SW,225,8.1,8.1,51,0.00,CLR,,0.00,WeatherDisplay:10.37,2013-09-14 16:19:00,
2013-09-14 11:24:00,66.9,47.7,29.09,South,180,3.5,3.5,50,0.00,CLR,,0.00,WeatherDisplay:10.37,2013-09-14 16:24:00,
2013-09-14 11:29:00,67.5,47.6,29.06,SW,225,5.9,5.9,49,0.00,CLR,,0.00,WeatherDisplay:10.37,2013-09-14 16:29:00,
2013-09-14 11:34:00,68.0,47.6,29.06,SW,225,5.8,5.8,48,0.00,CLR,,0.00,WeatherDisplay:10.37,2013-09-14 16:34:00,
2013-09-14 11:39:00,68.4,47.9,29.06,SW,225,4.6,4.6,48,0.00,CLR,,0.00,WeatherDisplay:10.37,2013-09-14 16:39:00,
2013-09-14 11:44:00,68.5,46.9,29.06,SSW,202,6.9,6.9,46,0.00,CLR,,0.00,WeatherDisplay:10.37,2013-09-14 16:44:00,
2013-09-14 11:49:00,68.5,46.9,29.06,SSW,202,8.1,8.1,46,0.00,CLR,,0.00,WeatherDisplay:10.37,2013-09-14 16:49:00,
2013-09-14 11:54:00,68.7,47.1,29.06,SW,225,6.0,6.0,46,0.00,CLR,,0.00,WeatherDisplay:10.37,2013-09-14 16:54:00,
2013-09-14 11:59:00,69.1,47.4,29.06,South,180,3.5,3.5,46,0.00,CLR,,0.00,WeatherDisplay:10.37,2013-09-14 16:59:00,
2013-09-14 12:04:00,69.4,47.8,29.06,SSW,202,5.8,5.8,46,0.00,CLR,,0.00,WeatherDisplay:10.37,2013-09-14 17:04:00,
2013-09-14 12:09:00,69.4,47.8,29.06,SSW,202,5.8,5.8,46,0.00,CLR,,0.00,WeatherDisplay:10.37,2013-09-14 17:09:00,
2013-09-14 12:14:00,69.8,47.5,29.03,SW,225,5.9,5.9,45,0.00,CLR,,0.00,WeatherDisplay:10.37,2013-09-14 17:14:00,
2013-09-14 12:19:00,69.8,46.9,29.03,SSW,202,9.2,9.2,44,0.00,CLR,,0.00,WeatherDisplay:10.37,2013-09-14 17:19:00,
2013-09-14 12:24:00,70.0,47.7,29.03,SW,225,7.4,7.4,45,0.00,CLR,,0.00,WeatherDisplay:10.37,2013-09-14 17:24:00,
2013-09-14 12:29:00,70.3,48.0,29.03,WSW,248,4.0,4.3,45,0.00,CLR,,0.00,WeatherDisplay:10.37,2013-09-14 17:29:00,
2013-09-14 12:34:00,70.7,48.3,29.03,SSW,202,3.5,3.5,45,0.00,CLR,,0.00,WeatherDisplay:10.37,2013-09-14 17:34:00,
2013-09-14 12:39:00,70.9,48.5,29.03,SSW,202,3.5,3.5,45,0.00,CLR,,0.00,WeatherDisplay:10.37,2013-09-14 17:39:00,
2013-09-14 12:44:00,70.9,47.9,29.00,SSW,202,6.9,6.9,44,0.00,CLR,,0.00,WeatherDisplay:10.37,2013-09-14 17:44:00,
2013-09-14 12:49:00,71.2,48.8,29.00,WSW,248,5.6,5.6,45,0.00,CLR,,0.00,WeatherDisplay:10.37,2013-09-14 17:49:00,
2013-09-14 12:54:00,71.8,48.1,29.00,SW,225,6.2,7.1,43,0.00,CLR,,0.00,WeatherDisplay:10.37,2013-09-14 17:54:00,
2013-09-14 12:59:00,71.8,48.1,29.03,SW,225,6.9,6.9,43,0.00,CLR,,0.00,WeatherDisplay:10.37,2013-09-14 17:59:00,
2013-09-14 13:04:00,71.4,47.7,29.03,SW,225,4.6,4.6,43,0.00,CLR,,0.00,WeatherDisplay:10.37,2013-09-14 18:04:00,
2013-09-14 13:09:00,71.4,47.7,29.03,SSW,202,5.8,5.8,43,0.00,CLR,,0.00,WeatherDisplay:10.37,2013-09-14 18:09:00,
2013-09-14 13:14:00,71.4,48.4,29.03,South,180,2.3,2.3,44,0.00,CLR,,0.00,WeatherDisplay:10.37,2013-09-14 18:14:00,
2013-09-14 13:19:00,71.4,47.7,29.03,SSW,202,4.6,4.6,43,0.00,CLR,,0.00,WeatherDisplay:10.37,2013-09-14 18:19:00,
2013-09-14 13:24:00,71.8,48.1,29.03,SW,225,5.8,5.8,43,0.00,CLR,,0.00,WeatherDisplay:10.37,2013-09-14 18:24:00,
2013-09-14 13:29:00,72.5,48.7,29.03,SSW,202,4.6,4.6,43,0.00,CLR,,0.00,WeatherDisplay:10.37,2013-09-14 18:29:00,
2013-09-14 13:34:00,72.7,48.9,29.03,SSE,158,6.9,6.9,43,0.00,CLR,,0.00,WeatherDisplay:10.37,2013-09-14 18:34:00,
2013-09-14 13:39:00,72.5,48.1,29.03,SSW,202,4.6,4.6,42,0.00,CLR,,0.00,WeatherDisplay:10.37,2013-09-14 18:39:00,
2013-09-14 13:44:00,72.3,47.9,29.03,SSW,202,8.1,8.1,42,0.00,CLR,,0.00,WeatherDisplay:10.37,2013-09-14 18:44:00,
2013-09-14 13:49:00,72.3,47.9,29.03,SW,225,6.2,6.2,42,0.00,CLR,,0.00,WeatherDisplay:10.37,2013-09-14 18:49:00,
2013-09-14 13:54:00,72.1,47.8,29.03,SSW,202,6.9,6.9,42,0.00,CLR,,0.00,WeatherDisplay:10.37,2013-09-14 18:54:00,
2013-09-14 13:59:00,72.0,47.6,29.00,SSW,202,5.8,5.8,42,0.00,CLR,,0.00,WeatherDisplay:10.37,2013-09-14 18:59:00,
2013-09-14 14:04:00,72.1,48.4,29.00,SSW,202,4.6,4.6,43,0.00,CLR,,0.00,WeatherDisplay:10.37,2013-09-14 19:04:00,
2013-09-14 14:09:00,72.1,48.4,29.00,SW,225,3.5,3.5,43,0.00,CLR,,0.00,WeatherDisplay:10.37,2013-09-14 19:09:00,
2013-09-14 14:14:00,72.1,47.8,29.00,WSW,248,8.1,8.1,42,0.00,CLR,,0.00,WeatherDisplay:10.37,2013-09-14 19:14:00,
2013-09-14 14:19:00,72.0,47.6,29.00,WSW,248,5.8,5.8,42,0.00,CLR,,0.00,WeatherDisplay:10.37,2013-09-14 19:19:00,
2013-09-14 14:25:00,72.1,48.4,29.00,SSE,158,2.3,2.3,43,0.00,CLR,,0.00,WeatherDisplay:10.37,2013-09-14 19:25:00,
2013-09-14 14:30:00,72.1,47.8,29.00,SSW,202,5.8,5.8,42,0.00,CLR,,0.00,WeatherDisplay:10.37,2013-09-14 19:30:00,
2013-09-14 14:35:00,72.5,48.7,29.00,SSW,202,0.0,0.0,43,0.00,CLR,,0.00,WeatherDisplay:10.37,2013-09-14 19:35:00,
2013-09-14 14:40:00,73.0,49.2,29.00,South,180,2.3,2.3,43,0.00,CLR,,0.00,WeatherDisplay:10.37,2013-09-14 19:40:00,
2013-09-14 14:45:00,73.6,49.1,29.00,SSW,202,3.5,3.5,42,0.00,CLR,,0.00,WeatherDisplay:10.37,2013-09-14 19:45:00,
2013-09-14 14:50:00,73.6,49.1,29.00,SW,225,6.2,6.2,42,0.00,CLR,,0.00,WeatherDisplay:10.37,2013-09-14 19:50:00,
2013-09-14 14:55:00,73.2,48.7,29.00,SW,225,8.7,8.7,42,0.00,CLR,,0.00,WeatherDisplay:10.37,2013-09-14 19:55:00,
2013-09-14 15:00:00,73.0,48.6,29.00,WSW,248,4.6,4.6,42,0.00,CLR,,0.00,WeatherDisplay:10.37,2013-09-14 20:00:00,
2013-09-14 15:05:00,72.9,47.8,29.00,SW,225,9.2,9.2,41,0.00,CLR,,0.00,WeatherDisplay:10.37,2013-09-14 20:05:00,
2013-09-14 15:10:00,72.7,47.6,29.00,SW,225,6.0,6.0,41,0.00,CLR,,0.00,WeatherDisplay:10.37,2013-09-14 20:10:00,
2013-09-14 15:15:00,72.5,47.5,29.00,South,180,4.6,4.6,41,0.00,CLR,,0.00,WeatherDisplay:10.37,2013-09-14 20:15:00,
2013-09-14 15:20:00,72.5,48.1,29.00,SSW,202,6.9,6.9,42,0.00,CLR,,0.00,WeatherDisplay:10.37,2013-09-14 20:20:00,
2013-09-14 15:25:00,72.3,47.9,29.00,SSE,158,2.6,2.9,42,0.00,CLR,,0.00,WeatherDisplay:10.37,2013-09-14 20:25:00,
2013-09-14 15:30:00,72.1,47.8,29.00,SW,225,7.4,7.4,42,0.00,CLR,,0.00,WeatherDisplay:10.37,2013-09-14 20:30:00,
2013-09-14 15:35:00,71.8,46.8,29.00,SW,225,6.4,6.4,41,0.00,CLR,,0.00,WeatherDisplay:10.37,2013-09-14 20:35:00,
2013-09-14 15:40:00,71.6,47.3,29.00,SSW,202,4.6,4.6,42,0.00,CLR,,0.00,WeatherDisplay:10.37,2013-09-14 20:40:00,
2013-09-14 15:45:00,71.4,47.1,29.00,SW,225,10.7,10.7,42,0.00,CLR,,0.00,WeatherDisplay:10.37,2013-09-14 20:45:00,
2013-09-14 15:50:00,71.4,47.1,29.00,South,180,3.5,3.5,42,0.00,CLR,,0.00,WeatherDisplay:10.37,2013-09-14 20:50:00,
2013-09-14 15:55:00,71.2,47.0,29.00,SW,225,5.8,5.8,42,0.00,CLR,,0.00,WeatherDisplay:10.37,2013-09-14 20:55:00,
2013-09-14 16:00:00,71.2,47.6,29.00,SSW,202,3.5,3.5,43,0.00,CLR,,0.00,WeatherDisplay:10.37,2013-09-14 21:00:00,
2013-09-14 16:05:00,71.2,47.0,29.00,SSW,202,5.8,5.8,42,0.00,CLR,,0.00,WeatherDisplay:10.37,2013-09-14 21:05:00,
2013-09-14 16:10:00,71.2,47.6,29.00,SSW,202,3.5,3.6,43,0.00,CLR,,0.00,WeatherDisplay:10.37,2013-09-14 21:10:00,
2013-09-14 16:15:00,71.4,47.7,29.00,South,180,5.8,5.8,43,0.00,CLR,,0.00,WeatherDisplay:10.37,2013-09-14 21:15:00,
2013-09-14 16:20:00,71.2,47.6,29.00,SW,225,4.9,4.9,43,0.00,CLR,,0.00,WeatherDisplay:10.37,2013-09-14 21:20:00,
2013-09-14 16:25:00,71.2,47.6,29.00,SSW,202,3.5,3.5,43,0.00,CLR,,0.00,WeatherDisplay:10.37,2013-09-14 21:25:00,
2013-09-14 16:30:00,71.1,47.4,29.00,SW,225,3.5,3.5,43,0.00,CLR,,0.00,WeatherDisplay:10.37,2013-09-14 21:30:00,
2013-09-14 16:35:00,70.9,47.3,29.00,SSW,202,3.5,3.5,43,0.00,CLR,,0.00,WeatherDisplay:10.37,2013-09-14 21:35:00,
2013-09-14 16:40:00,70.7,47.1,29.00,SSW,202,3.5,3.5,43,0.00,CLR,,0.00,WeatherDisplay:10.37,2013-09-14 21:40:00,
2013-09-14 16:45:00,70.5,46.9,29.00,SSW,202,4.6,4.6,43,0.00,CLR,,0.00,WeatherDisplay:10.37,2013-09-14 21:45:00,
2013-09-14 16:50:00,70.2,46.6,29.00,SSW,202,2.4,2.4,43,0.00,CLR,,0.00,WeatherDisplay:10.37,2013-09-14 21:50:00,
2013-09-14 16:55:00,70.2,46.6,29.00,SW,225,3.3,3.3,43,0.00,CLR,,0.00,WeatherDisplay:10.37,2013-09-14 21:55:00,
2013-09-14 17:00:00,70.2,46.6,28.97,SSW,202,3.6,3.6,43,0.00,CLR,,0.00,WeatherDisplay:10.37,2013-09-14 22:00:00,
2013-09-14 17:05:00,70.0,46.4,28.97,South,180,8.1,8.1,43,0.00,CLR,,0.00,WeatherDisplay:10.37,2013-09-14 22:05:00,
2013-09-14 17:10:00,70.0,46.4,28.97,SW,225,3.3,3.3,43,0.00,CLR,,0.00,WeatherDisplay:10.37,2013-09-14 22:10:00,
2013-09-14 17:15:00,70.0,46.4,29.00,South,180,3.5,3.5,43,0.00,CLR,,0.00,WeatherDisplay:10.37,2013-09-14 22:15:00,
2013-09-14 17:20:00,70.0,46.4,29.00,South,180,3.8,3.8,43,0.00,CLR,,0.00,WeatherDisplay:10.37,2013-09-14 22:20:00,
2013-09-14 17:25:00,69.8,46.3,29.00,South,180,3.5,3.5,43,0.00,CLR,,0.00,WeatherDisplay:10.37,2013-09-14 22:25:00,
2013-09-14 17:30:00,69.6,46.7,29.00,South,180,1.1,0.0,44,0.00,CLR,,0.00,WeatherDisplay:10.37,2013-09-14 22:30:00,
2013-09-14 17:35:00,69.6,46.7,29.00,South,180,2.3,2.3,44,0.00,CLR,,0.00,WeatherDisplay:10.37,2013-09-14 22:35:00,
2013-09-14 17:40:00,69.3,46.4,29.00,SSW,202,2.3,2.3,44,0.00,CLR,,0.00,WeatherDisplay:10.37,2013-09-14 22:40:00,
2013-09-14 17:45:00,69.1,46.8,29.00,SW,225,2.3,2.3,45,0.00,CLR,,0.00,WeatherDisplay:10.37,2013-09-14 22:45:00,
2013-09-14 17:49:00,68.9,46.7,29.00,South,180,1.4,1.4,45,0.00,CLR,,0.00,WeatherDisplay:10.37,2013-09-14 22:49:00,
2013-09-14 17:54:00,68.7,46.5,29.00,South,180,1.1,0.0,45,0.00,CLR,,0.00,WeatherDisplay:10.37,2013-09-14 22:54:00,
2013-09-14 17:59:00,68.5,46.3,29.00,South,180,1.1,0.0,45,0.00,CLR,,0.00,WeatherDisplay:10.37,2013-09-14 22:59:00,
2013-09-14 18:04:00,68.4,46.2,29.00,South,180,1.1,0.0,45,0.00,CLR,,0.00,WeatherDisplay:10.37,2013-09-14 23:04:00,
2013-09-14 18:09:00,68.2,46.0,29.00,South,180,1.1,0.0,45,0.00,CLR,,0.00,WeatherDisplay:10.37,2013-09-14 23:09:00,
2013-09-14 18:14:00,68.0,46.4,28.97,SSE,158,1.1,0.0,46,0.00,CLR,,0.00,WeatherDisplay:10.37,2013-09-14 23:14:00,
2013-09-14 18:19:00,67.8,46.3,28.97,SSE,158,1.1,0.0,46,0.00,CLR,,0.00,WeatherDisplay:10.37,2013-09-14 23:19:00,
2013-09-14 18:24:00,67.6,46.1,28.97,SSE,158,1.1,0.0,46,0.00,CLR,,0.00,WeatherDisplay:10.37,2013-09-14 23:24:00,
2013-09-14 18:29:00,67.5,45.9,28.97,SSE,158,0.0,0.0,46,0.00,CLR,,0.00,WeatherDisplay:10.37,2013-09-14 23:29:00,
2013-09-14 18:34:00,67.3,45.8,28.97,SSE,158,0.0,0.0,46,0.00,CLR,,0.00,WeatherDisplay:10.37,2013-09-14 23:34:00,
2013-09-14 18:39:00,67.1,46.2,28.97,SSE,158,0.0,0.0,47,0.00,CLR,,0.00,WeatherDisplay:10.37,2013-09-14 23:39:00,
2013-09-14 18:44:00,66.9,46.0,28.97,SSE,158,0.0,0.0,47,0.00,CLR,,0.00,WeatherDisplay:10.37,2013-09-14 23:44:00,
2013-09-14 18:49:00,66.7,45.9,28.97,SSE,158,0.0,0.0,47,0.00,CLR,,0.00,WeatherDisplay:10.37,2013-09-14 23:49:00,
2013-09-14 18:54:00,66.6,45.7,28.97,SSE,158,1.1,0.0,47,0.00,CLR,,0.00,WeatherDisplay:10.37,2013-09-14 23:54:00,
2013-09-14 18:59:00,66.4,45.5,28.97,SSE,158,1.1,0.0,47,0.00,CLR,,0.00,WeatherDisplay:10.37,2013-09-14 23:59:00,
2013-09-14 19:04:00,66.4,46.1,28.97,SSE,158,2.3,2.3,48,0.00,CLR,,0.00,WeatherDisplay:10.37,2013-09-15 00:04:00,
2013-09-14 19:09:00,66.2,45.9,28.97,SSE,158,0.0,0.0,48,0.00,CLR,,0.00,WeatherDisplay:10.37,2013-09-15 00:09:00,
2013-09-14 19:14:00,66.0,45.8,28.94,SSE,158,1.1,0.0,48,0.00,CLR,,0.00,WeatherDisplay:10.37,2013-09-15 00:14:00,
2013-09-14 19:19:00,65.8,46.1,28.94,SSE,158,0.0,0.0,49,0.00,CLR,,0.00,WeatherDisplay:10.37,2013-09-15 00:19:00,
2013-09-14 19:24:00,65.7,46.5,28.94,SSE,158,0.0,0.0,50,0.00,CLR,,0.00,WeatherDisplay:10.37,2013-09-15 00:24:00,
2013-09-14 19:29:00,65.5,47.4,28.97,SSE,158,0.0,0.0,52,0.00,CLR,,0.00,WeatherDisplay:10.37,2013-09-15 00:29:00,
2013-09-14 19:34:00,65.1,48.5,28.97,SSE,158,1.6,0.0,55,0.00,CLR,,0.00,WeatherDisplay:10.37,2013-09-15 00:34:00,
2013-09-14 19:39:00,64.4,50.2,28.97,SSE,158,2.3,2.3,60,0.00,CLR,,0.00,WeatherDisplay:10.37,2013-09-15 00:39:00,
2013-09-14 19:44:00,63.9,51.0,28.97,SE,135,2.3,2.3,63,0.00,CLR,,0.00,WeatherDisplay:10.37,2013-09-15 00:44:00,
2013-09-14 19:49:00,63.1,51.2,28.97,SE,135,0.0,0.0,65,0.00,CLR,,0.00,WeatherDisplay:10.37,2013-09-15 00:49:00,
2013-09-14 19:54:00,62.8,51.2,28.97,SE,135,0.0,0.0,66,0.00,CLR,,0.00,WeatherDisplay:10.37,2013-09-15 00:54:00,
2013-09-14 19:59:00,62.2,51.5,29.00,SE,135,2.3,2.3,68,0.00,CLR,,0.00,WeatherDisplay:10.37,2013-09-15 00:59:00,
2013-09-14 20:04:00,61.9,51.6,29.00,SE,135,0.0,0.0,69,0.00,CLR,,0.00,WeatherDisplay:10.37,2013-09-15 01:04:00,
2013-09-14 20:09:00,61.7,51.8,29.00,SE,135,0.0,0.0,70,0.00,CLR,,0.00,WeatherDisplay:10.37,2013-09-15 01:09:00,
2013-09-14 20:14:00,61.3,52.2,28.97,SE,135,0.0,0.0,72,0.00,CLR,,0.00,WeatherDisplay:10.37,2013-09-15 01:14:00,
2013-09-14 20:19:00,61.2,52.4,28.97,SE,135,0.0,0.0,73,0.00,CLR,,0.00,WeatherDisplay:10.37,2013-09-15 01:19:00,
2013-09-14 20:24:00,61.0,53.0,28.97,SE,135,0.0,0.0,75,0.00,CLR,,0.00,WeatherDisplay:10.37,2013-09-15 01:24:00,
2013-09-14 20:29:00,60.6,53.0,28.97,SE,135,0.0,0.0,76,0.00,CLR,,0.00,WeatherDisplay:10.37,2013-09-15 01:29:00,
2013-09-14 20:34:00,60.4,53.2,28.97,SE,135,0.0,0.0,77,0.04,RA,,0.04,WeatherDisplay:10.37,2013-09-15 01:34:00,
2013-09-14 20:39:00,60.3,53.4,28.97,SE,135,0.0,0.0,78,0.04,RA,,0.04,WeatherDisplay:10.37,2013-09-15 01:39:00,
2013-09-14 20:44:00,60.1,53.5,29.00,SE,135,0.0,0.0,79,0.04,CLR,,0.04,WeatherDisplay:10.37,2013-09-15 01:44:00,
2013-09-14 20:49:00,60.1,53.9,29.00,SE,135,0.0,0.0,80,0.04,CLR,,0.04,WeatherDisplay:10.37,2013-09-15 01:49:00,
2013-09-14 20:54:00,59.9,54.1,29.00,SE,135,0.0,0.0,81,0.04,CLR,,0.04,WeatherDisplay:10.37,2013-09-15 01:54:00,
2013-09-14 20:59:00,59.7,54.2,29.03,SE,135,0.0,0.0,82,0.08,RA,,0.08,WeatherDisplay:10.37,2013-09-15 01:59:00,
2013-09-14 21:04:00,59.7,54.2,29.03,South,180,0.0,0.0,82,0.08,RA,,0.08,WeatherDisplay:10.37,2013-09-15 02:04:00,
2013-09-14 21:10:00,59.5,54.4,29.03,South,180,2.3,2.3,83,0.08,CLR,,0.08,WeatherDisplay:10.37,2013-09-15 02:10:00,
2013-09-14 21:15:00,59.5,54.4,29.03,SW,225,3.5,3.5,83,0.12,RA,,0.12,WeatherDisplay:10.37,2013-09-15 02:15:00,
2013-09-14 21:20:00,59.4,54.2,29.03,SSE,158,2.3,2.3,83,0.12,RA,,0.12,WeatherDisplay:10.37,2013-09-15 02:20:00,
2013-09-14 21:25:00,59.4,54.2,29.03,SE,135,0.0,0.0,83,0.12,CLR,,0.12,WeatherDisplay:10.37,2013-09-15 02:25:00,
2013-09-14 21:30:00,59.2,54.0,29.03,SW,225,0.0,0.0,83,0.12,CLR,,0.12,WeatherDisplay:10.37,2013-09-15 02:30:00,
2013-09-14 21:35:00,59.0,53.8,29.03,SSE,158,0.0,0.0,83,0.08,CLR,,0.12,WeatherDisplay:10.37,2013-09-15 02:35:00,
2013-09-14 21:40:00,58.8,54.0,29.03,SE,135,0.0,0.0,84,0.08,CLR,,0.12,WeatherDisplay:10.37,2013-09-15 02:40:00,
2013-09-14 21:45:00,58.6,53.8,29.03,SE,135,1.1,0.0,84,0.13,RA,,0.17,WeatherDisplay:10.37,2013-09-15 02:45:00,
2013-09-14 21:50:00,58.5,53.6,29.03,East,90,3.5,3.5,84,0.13,RA,,0.17,WeatherDisplay:10.37,2013-09-15 02:50:00,
2013-09-14 21:55:00,58.1,53.3,29.03,East,90,0.0,0.0,84,0.13,CLR,,0.17,WeatherDisplay:10.37,2013-09-15 02:55:00,
2013-09-14 22:00:00,57.9,53.4,29.03,East,90,2.3,2.3,85,0.13,RA,,0.21,WeatherDisplay:10.37,2013-09-15 03:00:00,
2013-09-14 22:05:00,57.9,53.4,29.03,East,90,0.0,0.0,85,0.13,RA,,0.21,WeatherDisplay:10.37,2013-09-15 03:05:00,
2013-09-14 22:10:00,57.7,53.3,29.03,East,90,1.1,1.1,85,0.17,RA,,0.25,WeatherDisplay:10.37,2013-09-15 03:10:00,
2013-09-14 22:15:00,57.7,53.6,29.03,East,90,0.0,0.0,86,0.13,RA,,0.25,WeatherDisplay:10.37,2013-09-15 03:15:00,
2013-09-14 22:20:00,57.6,53.4,29.03,East,90,1.1,0.0,86,0.13,CLR,,0.25,WeatherDisplay:10.37,2013-09-15 03:20:00,
2013-09-14 22:25:00,57.4,53.5,29.03,East,90,1.1,1.1,87,0.13,CLR,,0.25,WeatherDisplay:10.37,2013-09-15 03:25:00,
2013-09-14 22:30:00,57.4,53.5,29.00,East,90,1.1,0.0,87,0.17,RA,,0.30,WeatherDisplay:10.37,2013-09-15 03:30:00,
2013-09-14 22:35:00,57.2,53.4,29.00,East,90,0.0,0.0,87,0.17,RA,,0.30,WeatherDisplay:10.37,2013-09-15 03:35:00,
2013-09-14 22:40:00,57.2,53.7,29.00,East,90,1.4,0.0,88,0.21,RA,,0.33,WeatherDisplay:10.37,2013-09-15 03:40:00,
2013-09-14 22:45:00,57.0,53.8,29.00,East,90,1.4,1.4,89,0.16,RA,,0.33,WeatherDisplay:10.37,2013-09-15 03:45:00,
2013-09-14 22:50:00,57.0,53.8,29.00,NE,45,2.3,2.3,89,0.16,CLR,,0.33,WeatherDisplay:10.37,2013-09-15 03:50:00,
2013-09-14 22:55:00,56.8,53.6,29.00,NE,45,0.0,0.0,89,0.16,CLR,,0.37,WeatherDisplay:10.37,2013-09-15 03:55:00,
2013-09-14 23:00:00,56.8,53.6,29.00,NE,45,0.0,0.0,89,0.16,RA,,0.37,WeatherDisplay:10.37,2013-09-15 04:00:00,
2013-09-14 23:01:00,56.8,53.6,29.00,NE,45,0.0,0.0,89,0.16,RA,,0.37,WeatherDisplay:10.37,2013-09-15 04:01:00,
2013-09-14 23:03:00,56.8,53.6,29.00,NE,45,0.0,0.0,89,0.16,RA,,0.37,WeatherDisplay:10.37,2013-09-15 04:03:00,
2013-09-14 23:08:00,56.8,53.6,29.00,NE,45,0.0,0.0,89,0.16,CLR,,0.37,WeatherDisplay:10.37,2013-09-15 04:08:00,
2013-09-14 23:13:00,56.8,53.9,29.00,NE,45,0.0,0.0,90,0.16,RA,,0.41,WeatherDisplay:10.37,2013-09-15 04:13:00,
2013-09-14 23:18:00,56.7,53.8,29.00,NE,45,0.0,0.0,90,0.16,RA,,0.41,WeatherDisplay:10.37,2013-09-15 04:18:00,
2013-09-14 23:23:00,56.7,53.8,29.00,NE,45,0.0,0.0,90,0.16,CLR,,0.41,WeatherDisplay:10.37,2013-09-15 04:23:00,
2013-09-14 23:28:00,56.7,53.8,29.00,NE,45,0.0,0.0,90,0.12,CLR,,0.41,WeatherDisplay:10.37,2013-09-15 04:28:00,
2013-09-14 23:33:00,56.7,53.8,29.00,NE,45,0.0,0.0,90,0.12,CLR,,0.41,WeatherDisplay:10.37,2013-09-15 04:33:00,
2013-09-14 23:38:00,56.5,53.6,29.00,NE,45,1.1,0.0,90,0.12,CLR,,0.41,WeatherDisplay:10.37,2013-09-15 04:38:00,
2013-09-14 23:43:00,56.5,53.9,29.00,NE,45,0.0,0.0,91,0.08,CLR,,0.41,WeatherDisplay:10.37,2013-09-15 04:43:00,
2013-09-14 23:48:00,56.5,53.9,29.00,NE,45,0.0,0.0,91,0.08,CLR,,0.41,WeatherDisplay:10.37,2013-09-15 04:48:00,
2013-09-14 23:53:00,56.5,53.9,29.00,NE,45,0.0,0.0,91,0.08,CLR,,0.41,WeatherDisplay:10.37,2013-09-15 04:53:00,
2013-09-14 23:58:00,56.3,53.7,29.00,NE,45,0.0,0.0,91,0.04,CLR,,0.41,WeatherDisplay:10.37,2013-09-15 04:58:00,